Location: Unspecified
(0.0000°N, 0.0000°E)
Time: 12:50:39
(UTC+00:00)

Vanguard 2 - Pass Details

Date: 23 September 2019
Orbit: 554 x 2937 km, 32.9° (Epoch: 13 October)

Event Time Altitude Azimuth Distance (km) Brightness Sun altitude
Rises 21:15:17 0° 227° (SW) 5,797 12.4 -50.7°
Reaches altitude 10° 21:18:45 10° 224° (SW) 5,040 11.9 -51.6°
Enters shadow 21:28:16 46° 205° (SSW) 3,407 10.6 -54.0°
Maximum altitude 21:34:34 67° 144° (SE) 3,069 - -55.6°
Drops below altitude 10° 21:52:03 10° 64° (ENE) 5,526 - -59.9°
Sets 21:56:02 0° 62° (ENE) 6,360 - -60.9°
